Location: Appingedam
(53.3222°N, 6.8488°E)
Time: 13:09:56
(UTC+00:00)

ISS - Pass Details

Date: 15 May 2026
Orbit: 416 x 423 km, 51.6° (Epoch: 11 June)

Event Time Altitude Azimuth Distance (km) Brightness Sun altitude
Rises 21:11:35 0° 272° (W) 2,358 0.6 -11.8°
Reaches altitude 10° 21:13:42 10° 269° (W) 1,495 -0.5 -12.0°
Maximum altitude 21:17:00 61° 188° (S) 476 -3.8 -12.2°
Enters shadow 21:19:32 16° 110° (ESE) 1,184 -1.9 -12.4°
